CW6318 Weather Reports


Display with metric or nautical units.
time (UTC)temp
F
wind
direction
speed
MPH
gust
MPH
rain 1hr
in
rain 24hr
in
rain mn
in
humidity
%
barometer
mb
20260903081458 47 232 0.0 0.0 0.01 0.61 0.01 59 994.7
20260903080959 47 232 0.0 0.0 0.01 0.61 0.01 59 994.8
20260903080500 47 232 0.0 0.0 0.01 0.61 0.01 59 994.8
20260903080002 47 232 0.0 0.0 0.01 0.61 0.01 59 994.7
20260903075000 47 232 0.0 0.0 0.01 0.61 0.01 60 994.6
20260903074458 47 232 0.0 0.0 0.02 0.61 0.01 60 994.7
20260903073459 47 232 0.0 0.0 0.02 0.61 0.01 60 994.8
20260903072959 47 232 0.0 0.0 0.01 0.60 0.00 60 994.6
20260903072459 47 232 0.0 0.0 0.01 0.60 0.00 60 994.6
20260903071959 47 232 0.0 0.0 0.01 0.60 0.00 60 994.5
20260903071459 47 232 0.0 0.0 0.01 0.60 0.00 60 994.5
20260903070459 47 232 0.0 0.0 0.02 0.60 0.00 61 994.4
20260903070004 47 232 0.0 0.0 0.02 0.60 0.00 61 994.4
20260903065500 47 232 0.0 0.0 0.02 0.60 0.60 61 994.4
20260903065001 47 232 0.0 0.0 0.02 0.60 0.60 61 994.3
20260903063501 47 232 0.0 0.0 0.02 0.59 0.59 61 994.3
20260903063001 47 232 0.0 0.0 0.02 0.59 0.59 61 994.3
20260903062501 48 232 0.0 0.0 0.02 0.59 0.59 61 994.4
20260903062002 48 232 0.0 0.0 0.02 0.59 0.59 62 994.4
20260903061500 48 232 0.0 0.0 0.02 0.59 0.59 62 994.4
20260903061001 48 232 0.0 0.0 0.02 0.59 0.59 62 994.4
20260903060002 48 232 0.0 0.0 0.02 0.58 0.58 62 994.4
20260903055500 48 232 0.0 0.0 0.02 0.58 0.58 62 994.4
20260903055000 48 232 0.0 0.0 0.02 0.58 0.58 62 994.4
20260903054502 48 232 0.0 0.0 0.03 0.58 0.58 62 994.5
20260903053959 48 232 0.0 0.0 0.03 0.58 0.58 62 994.5
20260903053500 48 232 0.0 0.0 0.02 0.57 0.57 62 994.4
20260903052502 49 232 0.0 0.0 0.02 0.57 0.57 61 994.4
20260903052000 49 232 0.0 0.0 0.03 0.57 0.57 61 994.3
20260903051505 49 232 0.0 0.0 0.03 0.57 0.57 61 994.3
20260903051000 49 232 0.0 0.0 0.03 0.57 0.57 61 994.3
20260903050503 49 232 0.0 0.0 0.03 0.56 0.56 61 994.3
20260903050000 49 232 0.0 0.0 0.03 0.56 0.56 61 994.2
20260903045500 49 232 0.0 0.0 0.03 0.56 0.56 61 994.2
20260903044501 49 232 0.0 0.0 0.03 0.55 0.55 60 994.1
20260903044000 49 232 0.0 0.0 0.03 0.55 0.55 60 994.0
20260903043500 50 232 0.0 0.0 0.03 0.55 0.55 60 994.0
20260903042959 50 232 0.0 0.0 0.04 0.55 0.55 60 993.9
20260903042002 50 232 0.0 0.0 0.03 0.54 0.54 60 994.0
20260903041500 50 232 0.0 0.0 0.04 0.54 0.54 60 994.1
20260903041003 50 232 0.0 0.0 0.04 0.54 0.54 60 993.9
20260903040500 50 232 0.0 0.0 0.03 0.53 0.53 60 993.7
20260903040000 50 232 0.0 0.0 0.04 0.53 0.53 60 993.8
20260903035459 50 232 0.0 0.0 0.04 0.53 0.53 60 993.9
20260903033500 50 232 0.0 0.0 0.05 0.52 0.52 60 993.6
20260903033001 50 232 0.0 0.0 0.04 0.51 0.51 60 993.6
20260903032459 50 232 0.0 0.0 0.05 0.51 0.51 60 993.6
20260903031001 51 232 0.0 0.0 0.05 0.50 0.50 59 993.4
20260903024501 51 232 0.0 1.0 0.06 0.48 0.48 59 993.3
20260903024001 51 232 0.0 0.0 0.07 0.48 0.48 59 993.2
20260903023500 51 232 0.0 0.0 0.06 0.47 0.47 59 993.3
20260903022500 52 232 0.0 0.0 0.06 0.46 0.46 59 993.0
20260903022001 52 232 0.0 0.0 0.07 0.46 0.46 59 993.1
20260903021501 52 232 0.0 4.0 0.06 0.45 0.45 59 993.0
20260903021000 52 232 0.0 4.0 0.07 0.45 0.45 59 992.9
20260903020459 52 244 0.0 2.0 0.06 0.44 0.44 59 992.7
20260903020001 52 244 0.0 4.0 0.07 0.44 0.44 59 992.6
20260903015500 52 241 1.0 4.0 0.06 0.43 0.43 60 992.5
20260903015002 52 232 1.0 5.0 0.07 0.43 0.43 60 992.5
20260903014500 53 265 0.0 5.0 0.06 0.42 0.42 59 992.4
20260903014001 53 356 1.0 4.0 0.06 0.41 0.41 59 992.3
20260903013500 53 244 0.0 4.0 0.06 0.41 0.41 59 992.2
20260903013000 53 238 0.0 4.0 0.05 0.40 0.40 58 992.2
20260903012500 54 225 0.0 4.0 0.06 0.40 0.40 57 992.1
20260903011959 54 247 1.0 2.0 0.05 0.39 0.39 56 992.0
20260903011000 54 229 0.0 0.0 0.06 0.38 0.38 56 991.6
20260903010500 54 229 0.0 0.0 0.06 0.38 0.38 57 991.6
20260903010002 54 230 0.0 0.0 0.05 0.37 0.37 57 991.7
20260903005000 54 230 0.0 0.0 0.06 0.36 0.36 57 991.8
20260903004459 54 230 0.0 0.0 0.06 0.36 0.36 58 991.7
20260903003959 54 230 0.0 0.0 0.06 0.35 0.35 58 991.7
20260903003459 54 229 0.0 0.0 0.06 0.35 0.35 58 991.7
20260903002959 54 230 0.0 0.0 0.07 0.35 0.35 58 991.7
20260903002459 54 229 0.0 0.0 0.07 0.34 0.34 58 991.6
20260903001459 54 230 0.0 0.0 0.07 0.33 0.33 58 991.7
20260903000959 54 229 0.0 0.0 0.06 0.32 0.32 58 991.6
20260903000500 54 230 0.0 0.0 0.07 0.32 0.32 59 991.7
20260903000000 54 229 0.0 0.0 0.06 0.31 0.31 59 991.6
20260902233501 55 230 0.0 0.0 0.06 0.29 0.29 59 991.5
20260902232959 55 230 0.0 0.0 0.05 0.28 0.28 59 991.5
20260902232500 55 230 0.0 0.0 0.05 0.27 0.27 59 991.5
20260902232001 55 230 0.0 0.0 0.05 0.27 0.27 60 991.5
20260902231500 55 230 0.0 0.0 0.04 0.26 0.26 60 991.5
20260902230500 55 230 0.0 0.0 0.04 0.25 0.25 60 991.4
20260902225500 55 230 0.0 0.0 0.04 0.25 0.25 60 991.5
20260902225002 55 229 0.0 0.0 0.04 0.24 0.24 61 991.5
20260902224459 55 230 0.0 0.0 0.04 0.24 0.24 61 991.5
20260902223959 55 230 0.0 0.0 0.03 0.23 0.23 61 991.4
20260902223459 55 230 0.0 0.0 0.04 0.23 0.23 61 991.4
20260902223000 55 230 0.0 1.0 0.04 0.23 0.23 61 991.5
20260902222500 55 230 0.0 0.0 0.04 0.22 0.22 61 991.6
20260902221959 55 230 0.0 0.0 0.04 0.22 0.22 62 991.6
20260902221500 56 230 0.0 0.0 0.05 0.22 0.22 63 991.5
20260902220459 56 229 0.0 0.0 0.05 0.21 0.21 63 991.4
20260902220002 56 230 0.0 0.0 0.05 0.21 0.21 64 991.5
20260902215459 56 230 0.0 0.0 0.06 0.21 0.21 65 991.4
20260902214959 56 229 0.0 0.0 0.06 0.20 0.20 66 991.3
20260902214500 56 229 0.0 1.0 0.06 0.20 0.20 67 991.3
20260902214001 56 229 0.0 1.0 0.07 0.20 0.20 67 991.4
20260902213000 57 229 0.0 0.0 0.07 0.19 0.19 68 991.4
20260902212500 57 230 0.0 1.0 0.07 0.18 0.18 68 991.3
20260902212000 57 230 0.0 1.0 0.07 0.18 0.18 68 991.3
20260902211501 57 230 0.0 0.0 0.07 0.17 0.17 68 991.3
20260902211000 57 230 0.0 0.0 0.07 0.17 0.17 68 991.3
20260902210000 57 229 0.0 0.0 0.07 0.16 0.16 68 991.2
20260902205500 57 229 0.0 0.0 0.07 0.15 0.15 69 991.2
20260902204959 57 229 0.0 0.0 0.06 0.14 0.14 69 991.1
20260902204459 57 229 0.0 0.0 0.07 0.14 0.14 69 991.1
20260902204000 58 229 0.0 0.0 0.07 0.13 0.13 70 991.1
20260902203501 58 230 0.0 0.0 0.07 0.13 0.13 70 991.1
20260902203001 58 230 0.0 0.0 0.06 0.12 0.12 70 991.0
20260902201502 58 230 0.0 1.0 0.05 0.10 0.10 71 990.9
20260902200501 58 231 0.0 1.0 0.05 0.09 0.09 72 991.0
20260902200002 59 237 0.0 1.0 0.05 0.09 0.09 73 991.1
20260902195459 59 240 0.0 0.0 0.05 0.08 0.08 73 991.2
20260902195000 59 240 0.0 0.0 0.05 0.08 0.08 73 991.3
20260902194500 59 240 0.0 0.0 0.05 0.07 0.07 74 991.3
20260902193959 59 240 0.0 0.0 0.04 0.06 0.06 74 991.5
20260902193459 59 240 0.0 0.0 0.05 0.06 0.06 74 991.6
20260902192459 60 240 0.0 0.0 0.04 0.05 0.05 74 991.8
20260902191958 60 240 0.0 0.0 0.05 0.05 0.05 74 991.7
20260902191459 60 240 0.0 0.0 0.05 0.05 0.05 74 991.8
20260902190959 60 240 0.0 0.0 0.05 0.05 0.05 74 991.9
20260902190002 61 240 0.0 0.0 0.04 0.04 0.04 74 992.0
20260902185500 61 240 0.0 0.0 0.03 0.03 0.03 74 992.0
20260902185000 61 240 0.0 0.0 0.03 0.03 0.03 74 991.9
20260902184500 61 240 0.0 0.0 0.02 0.02 0.02 74 991.9
20260902183959 61 240 0.0 0.0 0.02 0.02 0.02 74 991.8
20260902183501 61 240 0.0 0.0 0.01 0.01 0.01 74 991.7
20260902183000 62 240 0.0 0.0 0.01 0.01 0.01 75 991.6
20260902182500 62 240 0.0 0.0 0.01 0.01 0.01 75 991.6
20260902182000 62 240 0.0 0.0 0.00 0.00 0.00 74 991.6
20260902181500 62 240 0.0 0.0 0.00 0.00 0.00 75 991.6
20260902181000 62 240 0.0 0.0 0.00 0.00 0.00 75 991.5
20260902180459 62 240 0.0 0.0 0.00 0.00 0.00 76 991.4
20260902180005 62 240 0.0 0.0 0.00 0.00 0.00 76 991.4
20260902175459 62 240 0.0 0.0 0.00 0.00 0.00 76 991.4
20260902175000 62 240 0.0 0.0 0.00 0.00 0.00 76 991.5
20260902174500 62 240 0.0 0.0 0.00 0.00 0.00 76 991.4
20260902174001 62 240 0.0 0.0 0.00 0.00 0.00 75 991.3
20260902173500 62 240 0.0 0.0 0.00 0.00 0.00 73 991.3
20260902172959 62 240 0.0 0.0 0.00 0.00 0.00 73 991.3
20260902172459 62 240 0.0 0.0 0.00 0.00 0.00 75 991.2
20260902172001 62 240 0.0 0.0 0.00 0.00 0.00 74 991.2
20260902171500 62 240 0.0 0.0 0.00 0.00 0.00 75 991.2
20260902171001 62 240 0.0 0.0 0.00 0.00 0.00 74 991.1
20260902170501 62 240 0.0 0.0 0.00 0.00 0.00 74 991.2
20260902170000 62 240 0.0 0.0 0.00 0.00 0.00 74 991.4
20260902165501 62 240 0.0 0.0 0.00 0.00 0.00 74 991.3
20260902165000 62 240 0.0 0.0 0.00 0.00 0.00 74 991.3
20260902163959 61 240 0.0 0.0 0.00 0.00 0.00 74 991.3
20260902163458 61 240 0.0 0.0 0.00 0.00 0.00 75 991.3
20260902162959 60 240 0.0 0.0 0.00 0.00 0.00 75 991.4
20260902162458 60 240 0.0 0.0 0.00 0.00 0.00 76 991.4
20260902161959 59 240 0.0 0.0 0.00 0.00 0.00 76 991.5
20260902161500 59 240 0.0 0.0 0.00 0.00 0.00 77 991.5
20260902160002 57 240 0.0 0.0 0.00 0.00 0.00 75 991.8
20260902155000 56 240 0.0 0.0 0.00 0.00 0.00 73 991.9
20260902154500 56 240 0.0 0.0 0.00 0.00 0.00 72 992.0
20260902154000 56 240 0.0 0.0 0.00 0.00 0.00 72 992.1
20260902153500 55 240 0.0 0.0 0.00 0.00 0.00 72 992.1
20260902152959 55 240 0.0 0.0 0.00 0.00 0.00 71 992.3
20260902152500 55 240 0.0 0.0 0.00 0.00 0.00 71 992.4
20260902151959 55 240 0.0 0.0 0.00 0.00 0.00 71 992.5
20260902151500 54 240 0.0 0.0 0.00 0.00 0.00 71 992.5
20260902150500 54 240 0.0 0.0 0.00 0.00 0.00 71 992.5
20260902145500 54 240 0.0 0.0 0.00 0.00 0.00 71 992.7
20260902145000 54 240 0.0 0.0 0.00 0.00 0.00 71 992.7
20260902144000 54 240 0.0 0.0 0.00 0.00 0.00 72 992.8
20260902143500 54 240 0.0 0.0 0.00 0.00 0.00 72 992.9
20260902143000 54 240 0.0 0.0 0.00 0.00 0.00 72 993.0
20260902142459 54 240 0.0 0.0 0.00 0.00 0.00 72 993.0
20260902142000 54 240 0.0 0.0 0.00 0.00 0.00 72 993.1
20260902141500 54 240 0.0 0.0 0.00 0.00 0.00 72 993.1
20260902140500 54 240 0.0 0.0 0.00 0.00 0.00 73 993.3
20260902140002 54 240 0.0 0.0 0.00 0.00 0.00 73 993.3
20260902135500 54 240 0.0 0.0 0.00 0.00 0.00 73 993.5
20260902135001 54 240 0.0 0.0 0.00 0.00 0.00 73 993.5
20260902134501 54 240 0.0 0.0 0.00 0.00 0.00 73 993.6
20260902134000 54 240 0.0 0.0 0.00 0.00 0.00 73 993.5
20260902133001 54 240 0.0 0.0 0.00 0.00 0.00 73 993.6
20260902132501 54 240 0.0 0.0 0.00 0.00 0.00 73 993.6
20260902131959 54 240 0.0 0.0 0.00 0.00 0.00 74 993.7
20260902131501 54 240 0.0 0.0 0.00 0.00 0.00 74 993.8
20260902130500 54 240 0.0 0.0 0.00 0.00 0.00 74 993.9
20260902130002 54 240 0.0 0.0 0.00 0.00 0.00 74 994.0
20260902125459 54 240 0.0 0.0 0.00 0.00 0.00 74 994.1
20260902125000 54 240 0.0 0.0 0.00 0.00 0.00 74 994.1
20260902124459 54 240 0.0 0.0 0.00 0.00 0.00 74 994.2
20260902124000 54 240 0.0 0.0 0.00 0.00 0.00 74 994.1
20260902123500 54 240 0.0 0.0 0.00 0.00 0.00 75 994.1
20260902123000 54 240 0.0 0.0 0.00 0.00 0.00 75 994.1
20260902122500 54 240 0.0 0.0 0.00 0.00 0.00 75 994.1
20260902121000 54 240 0.0 0.0 0.00 0.00 0.00 76 994.2
20260902120500 54 240 0.0 0.0 0.00 0.00 0.00 76 994.4
20260902120002 54 240 0.0 0.0 0.00 0.00 0.00 76 994.4
20260902115500 55 240 0.0 0.0 0.00 0.00 0.00 76 994.4
20260902115001 55 240 0.0 0.0 0.00 0.00 0.00 76 994.4
20260902114501 55 240 0.0 0.0 0.00 0.00 0.00 76 994.4
20260902114003 55 240 0.0 0.0 0.00 0.00 0.00 76 994.5
20260902113000 55 240 0.0 0.0 0.00 0.00 0.00 76 994.5
20260902112000 55 240 0.0 0.0 0.00 0.00 0.00 76 994.5
20260902110500 56 240 0.0 0.0 0.00 0.00 0.00 76 994.6
20260902110003 56 240 0.0 0.0 0.00 0.00 0.00 77 994.6
20260902105001 56 240 0.0 0.0 0.00 0.00 0.00 76 994.7
20260902104459 56 240 0.0 0.0 0.00 0.00 0.00 76 994.8
20260902103959 56 240 0.0 0.0 0.00 0.00 0.00 76 994.8
20260902103001 57 240 0.0 0.0 0.00 0.00 0.00 76 995.0
20260902102502 57 240 0.0 0.0 0.00 0.00 0.00 76 995.0
20260902101500 57 240 0.0 0.0 0.00 0.00 0.00 76 995.1
20260902100958 57 240 0.0 0.0 0.00 0.00 0.00 76 995.1
20260902100459 57 240 0.0 0.0 0.00 0.00 0.00 76 995.3
20260902100000 57 240 0.0 0.0 0.00 0.00 0.00 76 995.2
20260902095459 57 240 0.0 0.0 0.00 0.00 0.00 76 995.3
20260902095001 57 240 0.0 0.0 0.00 0.00 0.00 76 995.3
20260902094500 57 240 0.0 0.0 0.00 0.00 0.00 76 995.3
20260902094000 57 240 0.0 0.0 0.00 0.00 0.00 76 995.3
20260902093500 57 240 0.0 0.0 0.00 0.00 0.00 76 995.3
20260902093001 57 240 0.0 0.0 0.00 0.00 0.00 76 995.3
20260902092501 57 240 0.0 0.0 0.00 0.00 0.00 76 995.4
20260902092001 57 240 0.0 0.0 0.00 0.00 0.00 76 995.4
20260902090959 57 240 0.0 0.0 0.00 0.00 0.00 76 995.4
20260902090501 57 240 0.0 1.0 0.00 0.00 0.00 76 995.4
20260902090000 57 240 0.0 1.0 0.00 0.00 0.00 76 995.4
20260902085501 57 239 0.0 0.0 0.00 0.00 0.00 76 995.5
20260902084959 57 239 0.0 0.0 0.00 0.00 0.00 76 995.5
20260902084001 57 238 0.0 0.0 0.00 0.00 0.00 77 995.5
20260902083501 57 238 0.0 0.0 0.00 0.00 0.00 77 995.7
20260902083001 57 238 0.0 0.0 0.00 0.00 0.00 77 995.5